2020-079M (46838 NORAD) Tracking and Keplerian Element Data

This shows tracking and keplerian element data for the satellite.

Feedback or suggestion? Click here.




ElementValue
Catalog46838
Name2020-079M
Epoch Orbit1164
Epoch Day21.21218407
Epoch Year2021
RAAN97.9828
Inclination97.2581
Eccentricity0.0007605
Argument of Perigee25.9912
Mean Anonmoly58.1124
Mean Motion15.32383455
Decay Rate-1.452E-05
L11 46838U 20079M 21021.21218407 -.00001452 00000-0 -44060-4 0 9990
L22 46838 97.2581 97.9828 0007605 25.9912 58.1124 15.32383455 11644

Live tracking and technical data element details for 2020-079M (NORAD 46838). 2020-079M can be tracked NOW for your location showing map with azimuth and elevation plus other details from your city location.

Track the satellite on the map from your city or location and see movement details for azimuth, elevation, latitude, longitude, range, height, and movement on the map or in text.







IsCatalogInMostPopularTable: catalog: 46838, numindb: 31
Update: records affected: 1



GetName: 46838 2020-079M

Hit Count: updated at: Fri, 22 Jan 2021 18:43:30 GMT